| time (UTC) | temp F | wind direction | speed knots | gust knots | rain 1hr in | rain 24hr in | rain mn in | humidity % | barometer mb |
| 20260503230912 | 73 | 115 | 2.6 | 9.6 | 0.00 | 0.00 | 0.00 | 25 | 1005.4 |
| 20260503224828 | 72 | 68 | 2.6 | 9.6 | 0.00 | 0.00 | 0.00 | 24 | 1005.7 |
| 20260503223810 | 72 | 54 | 2.6 | 9.6 | 0.00 | 0.00 | 0.00 | 25 | 1005.9 |
| 20260503222824 | 72 | 210 | 1.7 | 7.0 | 0.00 | 0.00 | 0.00 | 25 | 1006.0 |
| 20260503221801 | 72 | 45 | 1.7 | 9.6 | 0.00 | 0.00 | 0.00 | 27 | 1006.3 |
| 20260503220755 | 72 | 27 | 2.6 | 11.3 | 0.00 | 0.00 | 0.00 | 27 | 1006.4 |
| 20260503215810 | 73 | 56 | 2.6 | 11.3 | 0.00 | 0.00 | 0.00 | 27 | 1006.4 |
| 20260503214747 | 73 | 73 | 2.6 | 9.6 | 0.00 | 0.00 | 0.00 | 25 | 1006.7 |
| 20260503213727 | 72 | 59 | 1.7 | 7.0 | 0.00 | 0.00 | 0.00 | 27 | 1006.8 |
| 20260503212747 | 73 | 72 | 2.6 | 8.7 | 0.00 | 0.00 | 0.00 | 25 | 1007.0 |
| 20260503211716 | 73 | 49 | 1.7 | 13.0 | 0.00 | 0.00 | 0.00 | 27 | 1007.1 |
| 20260503210731 | 72 | 45 | 5.2 | 13.0 | 0.00 | 0.00 | 0.00 | 26 | 1007.4 |
| 20260503205704 | 72 | 49 | 2.6 | 9.6 | 0.00 | 0.00 | 0.00 | 25 | 1007.5 |
| 20260503204653 | 72 | 34 | 2.6 | 7.8 | 0.00 | 0.00 | 0.00 | 25 | 1007.7 |
| 20260503203638 | 72 | 28 | 2.6 | 10.4 | 0.00 | 0.00 | 0.00 | 26 | 1008.0 |
| 20260503202642 | 72 | 43 | 2.6 | 12.2 | 0.00 | 0.00 | 0.00 | 26 | 1008.0 |
| 20260503201649 | 71 | 32 | 3.5 | 12.2 | 0.00 | 0.00 | 0.00 | 25 | 1008.2 |
| 20260503200619 | 71 | 28 | 3.5 | 12.2 | 0.00 | 0.00 | 0.00 | 24 | 1008.2 |
| 20260503195548 | 71 | 31 | 5.2 | 14.8 | 0.00 | 0.00 | 0.00 | 25 | 1008.3 |
| 20260503194524 | 71 | 7 | 3.5 | 14.8 | 0.00 | 0.00 | 0.00 | 25 | 1008.4 |
| 20260503193511 | 71 | 31 | 2.6 | 9.6 | 0.00 | 0.00 | 0.00 | 24 | 1008.7 |
| 20260503192459 | 71 | 28 | 3.5 | 11.3 | 0.00 | 0.00 | 0.00 | 24 | 1009.0 |
| 20260503191444 | 71 | 20 | 3.5 | 11.3 | 0.00 | 0.00 | 0.00 | 28 | 1009.4 |
| 20260503190446 | 71 | 18 | 1.7 | 7.0 | 0.00 | 0.00 | 0.00 | 27 | 1009.5 |
| 20260503185448 | 70 | 12 | 2.6 | 9.6 | 0.00 | 0.00 | 0.00 | 26 | 1009.5 |
| 20260503183335 | 70 | 72 | 1.7 | 8.7 | 0.00 | 0.00 | 0.00 | 27 | 1009.8 |
| 20260503180022 | 68 | 226 | 0.9 | 6.1 | 0.00 | 0.00 | 0.00 | 36 | 1010.4 |
| 20260503175045 | 67 | 226 | 1.7 | 6.1 | 0.00 | 0.00 | 0.00 | 35 | 1010.5 |
| 20260503174029 | 67 | 181 | 0.9 | 7.8 | 0.00 | 0.00 | 0.00 | 36 | 1010.7 |
| 20260503173044 | 66 | 224 | 1.7 | 7.8 | 0.00 | 0.00 | 0.00 | 36 | 1010.9 |
| 20260503172020 | 66 | 221 | 1.7 | 7.8 | 0.00 | 0.00 | 0.00 | 35 | 1011.0 |
| 20260503171028 | 66 | 221 | 1.7 | 7.8 | 0.00 | 0.00 | 0.00 | 35 | 1011.2 |
| 20260503160103 | 61 | 27 | 0.9 | 7.0 | 0.00 | 0.00 | 0.00 | 51 | 1011.9 |
| 20260503150120 | 50 | 91 | 0.0 | 0.9 | 0.00 | 0.00 | 0.00 | 77 | 1012.5 |
| 20260503130803 | 38 | 61 | 0.0 | 0.0 | 0.00 | 0.00 | 0.00 | 90 | 1013.2 |
| 20260503110411 | 39 | 235 | 0.0 | 0.0 | 0.00 | 0.00 | 0.00 | 88 | 1013.7 |
| 20260503080941 | 47 | 28 | 0.9 | 4.3 | 0.00 | 0.00 | 0.00 | 78 | 1014.8 |
| 20260503072921 | 46 | 36 | 1.7 | 4.3 | 0.00 | 0.00 | 0.00 | 76 | 1015.6 |
| 20260503071936 | 46 | 30 | 0.0 | 3.5 | 0.00 | 0.00 | 0.00 | 76 | 1015.3 |
| 20260503070942 | 46 | 30 | 0.0 | 0.0 | 0.00 | 0.00 | 0.00 | 75 | 1015.7 |
| 20260503054925 | 45 | 44 | 0.0 | 0.0 | 0.00 | 0.00 | 0.00 | 74 | 1015.0 |
| 20260503053927 | 46 | 41 | 0.0 | 0.0 | 0.00 | 0.00 | 0.00 | 74 | 1015.1 |
| 20260503052921 | 46 | 39 | 0.0 | 0.0 | 0.00 | 0.00 | 0.00 | 73 | 1015.0 |
| 20260503051851 | 47 | 34 | 0.0 | 0.0 | 0.00 | 0.00 | 0.00 | 72 | 1014.9 |
| 20260503050838 | 47 | 32 | 0.0 | 0.0 | 0.00 | 0.00 | 0.00 | 72 | 1014.9 |
| 20260503045819 | 47 | 29 | 0.0 | 0.0 | 0.00 | 0.00 | 0.00 | 72 | 1014.9 |
| 20260503044749 | 47 | 22 | 0.0 | 0.0 | 0.00 | 0.00 | 0.00 | 71 | 1014.9 |
| 20260503043755 | 48 | 16 | 0.0 | 0.0 | 0.00 | 0.00 | 0.00 | 69 | 1014.9 |
| 20260503042748 | 48 | 15 | 0.0 | 0.0 | 0.00 | 0.00 | 0.00 | 68 | 1015.2 |
| 20260503041755 | 49 | 15 | 0.0 | 0.0 | 0.00 | 0.00 | 0.00 | 67 | 1015.1 |
| 20260503040812 | 50 | 8 | 0.0 | 0.0 | 0.00 | 0.00 | 0.00 | 66 | 1015.2 |
| 20260503035753 | 50 | 1 | 0.0 | 0.0 | 0.00 | 0.00 | 0.00 | 65 | 1015.1 |
| 20260503034751 | 51 | 359 | 0.0 | 0.0 | 0.00 | 0.00 | 0.00 | 62 | 1014.9 |
| 20260503033747 | 52 | 357 | 0.0 | 0.0 | 0.00 | 0.00 | 0.00 | 62 | 1014.8 |
| 20260503032737 | 53 | 355 | 0.0 | 0.0 | 0.00 | 0.00 | 0.00 | 59 | 1014.8 |
| 20260503025533 | 54 | 349 | 0.0 | 1.7 | 0.00 | 0.00 | 0.00 | 54 | 1014.4 |
| 20260503024519 | 55 | 347 | 0.0 | 0.0 | 0.00 | 0.00 | 0.00 | 54 | 1014.3 |
| 20260503023511 | 57 | 347 | 0.0 | 0.0 | 0.00 | 0.00 | 0.00 | 51 | 1014.3 |
| 20260503015035 | 61 | 339 | 0.0 | 0.0 | 0.00 | 0.00 | 0.00 | 42 | 1013.9 |
| 20260503014017 | 62 | 338 | 0.0 | 0.0 | 0.00 | 0.00 | 0.00 | 39 | 1013.8 |
| 20260503012958 | 63 | 338 | 0.0 | 0.0 | 0.00 | 0.00 | 0.00 | 39 | 1013.8 |
| 20260503010820 | 64 | 338 | 0.0 | 1.7 | 0.00 | 0.00 | 0.00 | 37 | 1013.8 |
| 20260503005759 | 64 | 338 | 0.9 | 5.2 | 0.00 | 0.00 | 0.00 | 37 | 1013.9 |
| 20260503004801 | 65 | 338 | 0.9 | 5.2 | 0.00 | 0.00 | 0.00 | 35 | 1013.9 |
| 20260503003804 | 65 | 338 | 0.0 | 3.5 | 0.00 | 0.00 | 0.00 | 35 | 1013.9 |
| 20260503002815 | 65 | 339 | 0.9 | 3.5 | 0.00 | 0.00 | 0.00 | 35 | 1014.0 |
| 20260503001804 | 65 | 338 | 0.9 | 3.5 | 0.00 | 0.00 | 0.00 | 35 | 1014.1 |
| 20260503000811 | 65 | 338 | 0.9 | 3.5 | 0.00 | 0.00 | 0.00 | 35 | 1014.1 |
| 20260502235833 | 65 | 338 | 0.0 | 3.5 | 0.00 | 0.00 | 0.00 | 36 | 1014.1 |
| 20260502234807 | 65 | 339 | 1.7 | 5.2 | 0.00 | 0.00 | 0.00 | 36 | 1014.2 |
| 20260502233753 | 65 | 340 | 1.7 | 6.1 | 0.00 | 0.00 | 0.00 | 37 | 1014.3 |
| 20260502232808 | 65 | 342 | 1.7 | 8.7 | 0.00 | 0.00 | 0.00 | 35 | 1014.3 |
| 20260502231813 | 65 | 339 | 1.7 | 8.7 | 0.00 | 0.00 | 0.00 | 38 | 1014.4 |